AirNav   Everest Fuels
 
 1262 users online  

M10 Mountainair Municipal Airport
Mountainair, New Mexico, USA

GOING TO MOUNTAINAIR?


FAA INFORMATION EFFECTIVE 18 JUNE 2020

Location

FAA Identifier: M10
Lat/Long: 34-32-00.0000N 106-13-26.0000W
34-32.000000N 106-13.433333W
34.5333333,-106.2238889
(estimated)
Elevation: 6492 ft. / 1979 m (estimated)
Variation: 11E (1985)
From city: 1 mile NE of MOUNTAINAIR, NM
Time zone: UTC -6 (UTC -7 during Standard Time)
Zip code: 87036

Airport Operations

Airport use: Open to the public
Activation date: 10/1964
Control tower: no
ARTCC: ALBUQUERQUE CENTER
FSS: ALBUQUERQUE FLIGHT SERVICE STATION
NOTAMs facility: ABQ (NOTAM-D service available)
Attendance: UNATNDD
Wind indicator: yes
Segmented circle: no
Lights: ACTVT HELIPORT LIGHTS, WIND SOCK - CTAF (3 CLICKS).
Beacon: ACTVT BEACON - CTAF (3 CLICKS).

Airport Communications

CTAF: 122.9

Nearby radio navigation aids

VOR radial/distance  VOR name  Freq  Var
CNXr277/28.8CORONA VORTAC115.5013E
ONMr055/31.7SOCORRO VORTAC116.8013E
OTOr191/(35.3)OTTO VOR114.0013E

Airport Services

Airframe service: NONE
Powerplant service: NONE
Bottled oxygen: NONE
Bulk oxygen: NONE

Runway Information

Helipad H1

Dimensions: 54 x 54 ft. / 16 x 16 m
Surface: concrete, in excellent condition
Runway edge lights: PERI
Traffic pattern: leftleft

Runway 8/26

Dimensions: 2578 x 50 ft. / 786 x 15 m
Surface: dirt, in fair condition
RUNWAY 8  RUNWAY 26
Traffic pattern: leftleft
Obstructions: 15 ft. road, 300 ft. from runway, 20:1 slope to clearnone

Airport Ownership and Management from official FAA records

Ownership: Publicly-owned
Owner: TOWN OF MOUNTAINAIR
PO BOX 115
MOUNTAINAIR, NM 87036
Phone 505-847-2321
Manager: DENNIS FULFER
PO BOX 115
MOUNTAINAIR, NM 87036
Phone 505-847-2321
EMERGENCY PHONE 505-384-2705.

Airport Operational Statistics

Aircraft based on the field: 2
Ultralights: 2
    
Aircraft operations: avg 50/month *
100% local general aviation
* for 12-month period ending 08 April 2018

Additional Remarks

RWY 08/26 SOFT; UNUSBL WHEN WET; +2-4 FT BERMS ON EDGES.
RWY 08/26 INFREQUENT MAINTENANCE MAY BE HAZARDOUS; RECOMMEND VISUAL INSPECTION PRIOR TO USING.
SCATTERED TREES & BRUSH ALONG RWY SIDES ARE PRIMARY SFC OBSTRUCTIONS.
ARPT ACCESS GATE LOCKED, CALL AHEAD FOR ACCESS.
RWY 08/26 IS UNMARKED & THE THLDS ARE NOT DELINEATED.
FOR CD CTC ALBUQUERQUE ARTCC AT 505-856-4861.

Instrument Procedures

There are no published instrument procedures at M10.

Some nearby airports with instrument procedures:

0E0 - Moriarty Municipal Airport (29 nm N)
KBRG - Belen Regional Airport (31 nm W)
KABQ - Albuquerque International Sunport Airport (36 nm NW)
KONM - Socorro Municipal Airport (46 nm SW)
KAEG - Double Eagle II Airport (46 nm NW)
 
Loc | Ops | Rwys | IFR | FBO | Links
Com | Nav | Svcs | Stats | Notes

Chandler Aviation LLC
 
Area around M10 (Mountainair Municipal Airport)
 
Road maps at: MapQuest Bing Google
 
Aerial photo
WARNING: Photo may not be current or correct
Aerial photo of M10 (Mountainair Municipal Airport)
Photo by Bart Barrack
Taken in October 2017
looking north from +/- 2500 AGL.

Do you have a better or more recent aerial photo of Mountainair Municipal Airport that you would like to share? If so, please send us your photo.

 
Sectional chart

 
Airport distance calculator
Flying to Mountainair Municipal Airport? Find the distance to fly.

From to M10

Sunrise and sunset
Times for 10-Jul-2020
 Local
(UTC-6)
 Zulu
(UTC)
Morning civil twilight05:3311:33
Sunrise06:0212:02
Sunset20:1902:19
Evening civil twilight20:4802:48

Current date and time
Zulu (UTC)  10-Jul-2020 21:13:01
Local (UTC-6)  10-Jul-2020 15:13:01
 
METAR
K0E0 
29nm N 
102055Z AUTO 28011G18KT 10SM CLR 38/01 A3029 RMK AO2 T03780013
KBRG 
31nm W 
102055Z AUTO 08005KT 10SM CLR 37/M01 A3019 RMK AO2 T03741009
KABQ 
37nm NW 
102052Z 01007KT 330V040 10SM FEW140 SCT270 38/M01 A3021 RMK AO2 SLP123 T03831011 56014
KCQC 
39nm NE 
ASOS 505-472-4551
102053Z AUTO 27009G22KT 240V320 10SM CLR 35/M02 A3036 RMK AO2 PK WND 27027/2037 SLP155 T03501017 56005 $
KONM 
46nm SW 
102055Z AUTO 05010G15KT 10SM CLR 40/M01 A3015 RMK AO2 T03991008
KAEG 
46nm NW 
102047Z 30011G21KT 10SM CLR 37/01 A3026
TAF
KABQ 
37nm NW 
101720Z 1018/1118 33007KT P6SM FEW120 SCT250 FM102100 30010KT P6SM SCT130 SCT250 FM110200 04006KT P6SM SCT150 FM111000 12006KT P6SM FEW150 FM111700 30007KT P6SM SCT130
NOTAMs
Click for the latest NOTAMs
NOTAMs are issued by the DoD/FAA and will open in a separate window not controlled by AirNav.

 

 
 

Would you like to see your business listed on this page?

 If your business provides an interesting product or service to pilots, flight crews, aircraft, or users of the Mountainair Municipal Airport, you should consider listing it here.  To start the listing process, click on the button below
 
Add a business
 

Other Pages about Mountainair Municipal Airport

Update a link
 
Copyright © AirNav, LLC. All rights reserved. Privacy Policy  Contact